Location: Red Shale Campground
(45.5700°N, 106.1600°W)
Time: 01:36:34
(UTC-06:00)

Daily predictions for brighter satellites

Satellite Brightness Start Highest point End
(mag) Time Altitude Azimuth Time Altitude Azimuth Time Altitude Azimuth
NOSS 3-2 (C) 4.1 00:06:00 10° NW 00:13:23 59° WSW 00:13:52 58° SW
Cosmos 968 Rocket 4.1 00:08:35 10° NNW 00:12:31 53° NW 00:12:31 53° NW
Cosmos 2333 Rocket 2.5 00:14:46 63° NW 00:14:46 63° NW 00:20:14 10° NNE
Cosmos 972 Rocket 4.5 00:19:51 66° NNW 00:19:51 66° NNW 00:25:17 10° NNE
CZ-2C R/B 3.8 00:22:35 46° NNW 00:22:35 46° NNW 00:25:58 10° NNW
Mayak 1.1 00:27:34 10° NNE 00:28:57 19° NE 00:28:57 19° NE
NOSS 0 Rocket 4.2 00:33:35 58° WNW 00:34:00 60° WNW 00:40:12 10° NNE
Cosmos 2237 Rocket 2.6 00:38:56 57° NW 00:38:56 57° NW 00:44:02 10° NNE
Cosmos 2369 Rocket 4.0 00:35:35 10° N 00:40:08 24° NE 00:41:41 21° ENE
Cosmos 2184 Rocket 4.0 00:41:37 75° NNW 00:41:37 75° NNW 00:47:19 10° N
NOSS 3-4 (A) 3.9 00:41:24 52° W 00:42:25 58° NW 00:48:54 10° NE
NOSS 3-4 (C) 3.9 00:41:33 53° W 00:42:31 58° NW 00:49:01 10° NE
Cosmos 1980 4.3 00:44:18 51° NW 00:44:18 51° NW 00:49:46 10° NNE
Cosmos 2074 Rocket 4.1 00:46:12 73° NW 00:46:12 73° NW 00:52:06 10° N
CENTAUR R/B 2.9 00:43:23 10° NW 00:51:16 79° SW 00:51:46 76° SSW
Nadezhda 3 Rocket 4.1 00:46:25 10° N 00:52:21 71° NE 00:52:21 71° NE
ATLAS CENTAUR R/B 4.0 00:54:01 10° NNW 00:54:43 15° NNW 00:54:43 15° NNW
Cosmos 2297 4.5 00:53:34 10° NNW 00:57:39 45° WNW 00:57:39 45° WNW
Lacrosse 5 4.0 00:56:23 10° WNW 01:00:34 25° NNW 01:04:46 10° NE
USA 215 3.2 01:00:30 78° ENE 01:00:48 81° NE 01:07:22 10° NW
Cosmos 2278 Rocket 4.2 01:10:53 10° NW 01:13:15 18° WNW 01:13:15 18° WNW
COSMOS 2455 3.7 01:21:19 10° NW 01:25:24 40° WNW 01:25:24 40° WNW
GEOS 3 Rocket 4.2 01:35:00 55° NNW 01:35:00 55° NNW 01:39:10 10° NW
Cosmos 1603 4.3 01:37:24 50° ENE 01:37:24 50° ENE 01:41:42 10° NNE
Cosmos 2154 Rocket 4.3 01:40:26 55° WNW 01:40:26 55° WNW 01:46:08 10° N
CZ-2C R/B 4.3 01:37:55 10° N 01:42:10 24° WNW 01:42:23 24° WNW
SL-16 R/B 3.0 01:45:21 43° NW 01:45:21 43° NW 01:50:35 10° NNE
Cosmos 1959 Rocket 4.4 01:59:37 78° NE 01:59:37 78° NE 02:05:23 10° N
Cosmos 1937 Rocket 4.0 01:54:22 10° NNW 01:58:55 57° NNE 01:58:55 57° NNE
Cosmos 1898 Rocket 4.1 01:56:14 10° NNW 02:00:11 51° NNW 02:00:11 51° NNW
Mayak 1.1 02:03:51 10° NNW 02:05:36 17° NW 02:05:36 17° NW
BREEZE-M DEB (TANK) 4.4 02:09:37 47° E 02:09:37 47° E 02:18:12 10° ENE
Cosmos 1943 Rocket 2.5 02:07:05 10° NNW 02:12:34 60° ENE 02:12:39 60° ENE
Cosmos 468 Rocket 4.4 02:14:58 58° NE 02:14:58 58° NE 02:19:07 10° NNE
Meteor 2-14 Rocket 4.3 02:14:37 84° NNW 02:14:37 84° NNW 02:20:37 10° N
SL-8 Rocket 4.1 02:14:38 66° WNW 02:14:38 66° WNW 02:20:39 10° N
Resurs 1-4 Rocket 4.0 02:14:50 10° NE 02:18:33 19° E 02:19:26 18° ESE
SL-16 R/B 3.8 02:15:37 21° ESE 02:19:00 36° ENE 02:24:35 10° N
Cosmos 2218 Rocket 4.0 02:20:29 72° W 02:20:31 72° W 02:26:56 10° N
Cosmos 2150 Rocket 4.5 02:16:19 10° NNW 02:20:21 55° NNW 02:20:21 55° NNW
Cosmos 990 Rocket 4.4 02:17:55 10° NNW 02:22:09 59° NNW 02:22:09 59° NNW
Cosmos 2369 Rocket 2.7 02:19:01 10° NNW 02:23:26 52° NW 02:23:26 52° NW
Cosmos 371 Rocket 3.9 02:27:33 56° NNE 02:27:33 56° NNE 02:31:23 10° NNE
Gblst 52 Del rocket 4.5 02:28:54 62° ESE 02:28:54 62° ESE 02:33:52 10° ENE
CZ-2D R/B 3.8 02:24:57 10° NE 02:29:13 23° E 02:30:15 22° ESE
Cosmos 1814 Rocket 4.1 02:35:58 73° NE 02:35:58 73° NE 02:40:45 10° NNE
Cosmos 1943 3.1 02:37:57 80° NNW 02:37:57 80° NNW 02:43:30 10° NNE
Helios 1A Rocket 4.0 02:37:31 10° NNE 02:40:24 43° NE 02:40:24 43° NE
Cosmos 841 Rocket 3.7 02:41:57 61° E 02:41:57 61° E 02:46:46 10° NNE
SL-24 R/B - RUBIN 2 4.3 02:44:04 74° WSW 02:44:38 81° NW 02:50:48 10° NE
Lacrosse 5 4.1 02:40:48 10° NW 02:44:57 24° N 02:49:05 10° ENE
COBE Rocket 4.0 02:42:37 10° NNE 02:47:22 77° NE 02:47:22 77° NE
Cosmos 1500 Rocket 4.1 02:45:07 10° N 02:48:54 56° NE 02:48:54 56° NE
H-2A R/B 4.1 02:46:30 10° N 02:48:32 25° NNW 02:48:32 25° NNW
Cosmos-2242 4.0 02:51:42 43° NNW 02:51:42 43° NNW 02:54:53 10° N
Cosmos 1626 3.7 02:46:59 10° N 02:49:19 34° NNE 02:49:19 34° NNE
ARIANE 5 R/B 3.9 02:46:39 10° NE 02:51:15 30° E 02:52:31 27° ESE
SL-08 R/B 3.4 02:54:58 72° N 02:54:58 72° N 02:59:16 10° NNW
Cosmos 1000 Rocket 4.4 02:50:02 10° N 02:56:20 87° E 02:57:31 62° SSE
UNK 4.2 02:57:31 51° E 02:57:59 54° ENE 03:02:27 10° N
Cosmos 304 Rocket 4.0 02:59:06 63° E 02:59:06 63° E 03:03:36 10° NNE
Meteor 1-16 Rocket 4.2 02:59:54 73° SW 03:00:23 78° WNW 03:06:16 10° N
Cosmos 2239 Rocket 4.5 03:04:35 56° S 03:06:01 80° E 03:12:20 10° N
ADEOS Rocket 2.6 03:02:39 10° NNE 03:08:10 77° WNW 03:08:42 70° SW
Cosmos 1703 4.1 03:06:05 10° N 03:08:59 48° N 03:08:59 48° N
Cosmos 1535 Rocket 4.5 03:13:37 53° S 03:15:18 86° E 03:21:45 10° N
IRS-1D 4.0 03:10:50 10° NNE 03:15:53 56° E 03:17:03 45° SE
Cosmos 2058 3.5 03:13:05 10° NNW 03:16:14 51° NNW 03:16:14 51° NNW
Cosmos 2221 3.1 03:17:54 48° ESE 03:18:17 50° E 03:22:29 10° NNE
ADEOS 4.2 03:19:15 10° NNE 03:24:20 50° E 03:26:04 36° SSE
Spot 4 Rocket 4.2 03:19:17 10° NNE 03:24:27 67° ESE 03:25:38 50° SSE
Meteor 1-11 4.4 03:20:36 10° NNW 03:26:01 50° W 03:26:08 50° W
NPP 3.7 03:22:54 10° N 03:28:13 60° WNW 03:29:00 54° WSW
CBERS-1 4.0 03:23:38 10° N 03:28:41 61° WNW 03:29:14 57° WSW
Cosmos 372 Rocket 3.9 03:23:58 10° NNW 03:29:10 89° ENE 03:30:51 44° SSE
COSMOS 2406 3.8 03:29:09 36° SSE 03:31:03 50° ESE 03:36:32 10° NE
Cosmos 1842 Rocket 4.0 03:32:05 48° WNW 03:32:05 48° WNW 03:35:58 10° N
IRS-1C 4.1 03:28:42 10° N 03:34:03 72° WNW 03:35:07 56° SW
Cosmos 2098 Rocket 3.6 03:32:57 51° SSW 03:34:28 80° W 03:39:30 10° N
Cosmos 1763 Rocket 4.2 03:34:52 36° WNW 03:35:25 37° WNW 03:40:08 10° N
Cosmos 1908 3.1 03:38:55 80° E 03:38:55 80° E 03:42:43 10° N
Cosmos 540 Rocket 3.3 03:38:05 59° SSW 03:39:06 84° WNW 03:44:16 10° NNE
Meteor 2-1 Rocket 4.1 03:41:03 50° SW 03:42:25 70° WNW 03:47:58 10° N
MOS 1 Rocket 3.0 03:41:23 10° NNE 03:45:43 85° E 03:46:38 56° S
Cosmos 2151 4.2 03:42:44 10° NNW 03:45:30 29° WNW 03:45:30 29° WNW
Cosmos 1242 Rocket 3.9 03:49:40 28° NW 03:49:40 28° NW 03:52:05 10° N
Cosmos 1300 4.3 03:47:35 21° SE 03:49:21 31° E 03:52:47 10° NNE
Sich 1 3.4 03:47:39 10° N 03:52:01 62° ENE 03:54:41 22° SSE
Cosmos 1125 Rocket 3.7 03:48:42 10° NNW 03:53:44 48° WSW 03:54:26 45° SW
Cosmos 1943 Rocket 3.7 03:51:44 10° NW 03:54:06 19° WNW 03:54:06 19° WNW
CZ-2D R/B 3.9 03:52:33 10° NNE 03:56:30 54° E 03:57:56 34° SSE
Resurs 1-4 Rocket 2.2 03:53:37 10° N 03:58:48 61° WNW 04:00:30 40° SW
Cosmos 1315 Rocket 2.9 03:57:57 10° N 04:02:01 73° ENE 04:04:13 25° SSE
SL-16 R/B 2.9 04:00:43 35° SW 04:02:30 43° W 04:08:24 10° NNW
Cosmos 2123 Rocket 4.2 03:56:53 10° NNW 04:02:56 52° W 04:05:32 32° SSW
Cosmos 1656 Rocket 4.0 03:58:32 10° NW 04:03:53 43° WSW 04:05:19 36° SW
CZ-2D R/B 2.4 04:04:22 10° N 04:09:34 51° WNW 04:11:34 34° SW
Cosmos 2228 Rocket 4.3 04:08:44 12° SSE 04:12:38 41° E 04:16:49 10° NNE
PSLV R/B 4.2 04:15:14 33° SSE 04:15:14 33° SSE 04:17:39 10° ESE
Cosmos 1459 Rocket 4.4 04:10:18 10° S 04:16:17 59° E 04:22:15 10° NNE
USA 161 2.5 04:17:34 30° E 04:17:39 30° ENE 04:19:27 10° N
Centaur D AC-29 4.3 04:15:46 13° S 04:18:23 15° SSE 04:27:02 10° SE
SOZ 4.4 04:18:55 50° S 04:19:15 55° SE 04:23:13 10° ENE
Cosmos 1633 Rocket 2.9 04:16:10 10° N 04:20:34 81° W 04:23:50 17° S
USA 229 DEB 4.0 04:16:28 10° NW 04:23:17 48° WSW 04:30:13 10° S
Cosmos 2082 Rocket 4.2 04:19:02 10° SSE 04:23:20 23° ESE 04:27:39 10° NE
USA 229 4.0 04:16:34 10° NW 04:23:23 49° WSW 04:30:20 10° S
Cosmos 292 Rocket 3.7 04:24:57 28° SSW 04:27:26 78° WNW 04:32:17 10° NNE
NOSS 3-1 (A) 4.2 04:21:00 10° NW 04:28:32 82° NE 04:36:57 10° SE
Lacrosse 5 2.6 04:23:52 10° NW 04:28:51 54° NNE 04:33:50 10° ESE
ARIANE 5 R/B 3.2 04:25:35 10° N 04:30:25 39° WNW 04:32:51 25° WSW
UNKNOWN OBJECT B 3.2 04:29:45 10° N 04:33:41 49° WNW 04:35:28 28° SW
Cosmos 1400 Rocket 4.0 04:31:34 10° NW 04:34:44 24° W 04:34:44 24° W
Cosmos 2061 Rocket 4.3 04:29:40 10° S 04:36:05 75° E 04:42:30 10° NNE
Cosmos 1726 2.6 04:38:32 30° SW 04:39:49 42° WNW 04:43:24 10° N
SL-27 R/B 2.5 04:41:53 30° SW 04:43:16 54° WNW 04:46:40 10° NNE
Cosmos 1892 3.5 04:40:38 10° N 04:44:24 54° ENE 04:48:10 10° SSE
Cosmos 1328 Rocket 3.4 04:42:22 16° SSW 04:45:47 78° W 04:50:09 10° N
Shenzhou-11 Module 4.2 04:46:46 13° S 04:47:51 16° SSE 04:49:47 10° ESE
Cosmos 2369 3.9 04:42:18 10° NNW 04:47:59 78° ENE 04:53:39 10° SSE
ADEOS II 2.3 04:44:09 10° NNE 04:49:26 73° ESE 04:54:40 10° S
Cosmos 1666 Rocket 4.4 04:49:35 10° NNW 04:53:28 30° W 04:56:02 17° SW
PSLV R/B 4.3 04:49:12 10° NNE 04:53:30 55° E 04:57:42 10° S
MOS 1-B 4.4 04:49:22 10° NNE 04:55:15 88° W 05:01:03 10° SSW
Cosmos 2016 Rocket 4.0 04:49:39 10° S 04:55:47 83° E 05:01:54 10° N
Cosmos 2221 4.3 04:54:47 15° W 04:56:11 17° WNW 04:58:58 10° NNW
In-Cosmos 22 Rocket 4.1 04:52:08 10° NNW 04:57:27 58° W 05:02:38 10° S
NOSS 3-1 (C) 4.1 04:50:44 10° NW 04:58:10 59° WSW 05:06:21 10° SSE
Abrixas 2.8 05:00:13 24° WSW 05:01:13 33° SSW 05:03:38 10° SE
Cosmos 1656 3.9 04:56:22 10° NNW 05:02:07 78° ENE 05:07:49 10° SSE
Cosmos 1933 Rocket 3.6 04:57:59 10° NNW 05:02:26 65° W 05:06:50 10° S
Meteor 2-2 Rocket 4.5 04:58:51 10° SSW 05:04:44 61° WNW 05:10:44 10° N
COSMOS 2487 3.5 05:03:47 10° S 05:07:09 44° ESE 05:10:34 10° NNE
Cosmos 1725 Rocket 4.2 05:02:19 10° S 05:08:28 75° E 05:14:39 10° NNE
BREEZE-M DEB (TANK) 3.2 05:05:10 10° W 05:08:44 75° SSW 05:19:02 10° ESE
BREEZE M DEB (TANK) 4.2 05:05:41 11° W 05:09:18 35° SSW 05:20:25 10° SSE
Cosmos 1802 Rocket 4.0 05:03:55 10° SSW 05:10:04 67° W 05:16:22 10° N
Cosmos 773 Rocket 4.1 05:06:32 10° SSW 05:11:43 68° WNW 05:17:02 10° NNE
Okean O Rocket 1.8 05:07:34 10° NNE 05:12:02 77° ESE 05:16:26 10° S
Cosmos 2100 Rocket 4.3 05:06:15 10° SSW 05:12:25 52° WNW 05:18:39 10° N
COSMOS 2406 4.3 05:11:14 12° WSW 05:15:36 30° NW 05:20:36 10° N
Cosmos 1151 Rocket 3.1 05:16:11 10° SSW 05:20:25 57° WNW 05:24:40 10° N
Cosmos 1833 Rocket 3.1 05:16:22 10° SSW 05:21:57 65° ESE 05:27:33 10° NNE
Cosmos 1300 4.3 05:22:37 11° WSW 05:25:08 19° WNW 05:27:58 10° NNW
Tsikada Rocket 4.0 05:21:01 10° N 05:27:20 79° W 05:33:41 10° S
Cosmos 1980 Rocket 2.9 05:28:27 10° NNW 05:34:01 60° ENE 05:39:34 10° SE
Cosmos 2278 4.0 05:32:19 10° NW 05:37:40 45° WSW 05:42:59 10° S
EO 1 Del DPAF 3.6 05:34:42 10° SSE 05:38:32 71° ENE 05:42:22 10° N
BREEZE-M DEB (TANK) 4.2 05:25:56 10° WSW 05:40:20 82° NNW 05:44:08 10° ENE
